SCP
0 0 0 0 0 -0 0 -0 0 0 0 0 0 0 0 0 0 0 0 0 0 0 0 0 0 0 0 0 0 0 0 0 0 0 0 0 0 0 0 0 0 0 0 0 0 0 0 0 0 0 0 0 0 0
0 0 0 0 0 0 0 0 0 0 0 0 0 0 0 0 0 0 0 0 0 0 0 0 0 0 0 0 0 0 0 0 0 0 0 0 0 0 0 0 0 0 0 0 0 0 0 0 0 0 0 0 0 0
0 0 0 0 0 0 0 0 0 0 0 0 0 0 0 0 0 0 0 0 0 0 0 0 0 0 0 0 0 0 0 0 0 -0 -0 -0 0 0 0 0 0 0 0 0 0 0 0 0 0 0 0 0 0 0
0 0 0 0 0 0 0 0 0 0 0 0 0 0 0 0 0 0 0 0 0 0 0 0 0 0 0 0 0 0 0 0 0 0 -0 -0 -0 0 0 0 0 0 0 0 0 0 0 0 0 0 0 0 0 0
0 0 0 0 0 0 0 0 0 0 0 0 0 0 0 0 0 0 0 0 0 0 0 0 0 0 0 0 0 0 0 0 0 0 0 -0 -0 -0 -0 -0 -0 0 0 0 0 -0 -0 0 0 0 0 0 0 0
0 -0 0 0 0 0 0 0 0 0 0 0 0 0 0 0 0 0 0 0 0 0 0 0 0 0 -0 0 0 0 0 0 0 0 0 0 0 0 -0 -0 0 0 0 0 -0 0 0 0 0 0 0 0 0 0
-0 -0 0 0 0 0 0 0 0 0 0 0 0 0 0 0 0 0 0 0 0 0 0 0 0 0 0 0 0 0 0 0 0 0 0 0 0 0 0 0 0 0 0 -0 0 0 0 0 0 0 0 0 0 0
-0 0 0 0 0 0 0 0 0 0 0 0 0 0 0 0 0 0 0 0 0 0 0 0 0 0 0 0 0 0 0 0 0 0 0 0 0 0 0 0 0 0 0 0 0 0 0 0 0 0 0 0 0 0
0 0 0 0 0 0 0 0 -0 0 0 0 0 0 0 0 0 0 0 0 0 0 0 0 0 0 0 0 0 0 0 0 0 0 0 0 0 0 0 0 0 0 0 0 0 0 0 0 0 0 0 0 0 0
0 0 0 0 0 0 0 0 0 0 0 0 0 0 0 0 0 0 0 0 0 0 0 0 0 0 0 0 0 0 0 0 0 0 0 0 0 0 0 0 0 0 0 0 0 -0 -0 0 0 0 0 0 0 0
0 0 0 0 0 0 0 0 0 0 0 0 0 0 0 0 0 0 0 0 0 0 0 0 0 0 0 0 0 0 0 0 0 0 0 0 0 0 0 0 0 0 0 0 0 0 0 0 0 0 0 0 0 0
0 0 0 0 0 0 0 0 0 0 0 0 0 0 0 0 0 0 0 0 0 0 0 0 0 0 0 0 0 0 0 0 0 0 0 0 0 0 0 -0 -0 -0 -0 -0 -0 0 0 0 0 0 0 0 0 0
0 0 0 0 0 0 0 0 0 0 0 0 0 0 0 0 0 0 0 0 0 0 0 0 0 0 0 0 0 0 0 0 0 0 0 0 0 0 0 -0 0 -0 -0 -0 -0 -0 0 0 0 0 0 0 0 0
0 0 0 0 0 0 0 0 0 0 0 0 0 0 0 0 0 0 0 0 0 0 0 0 0 0 0 0 0 0 0 0 0 0 0 0 0 0 -0 -0 -0 -0 -0 -0 -0 -0 0 0 0 0 0 0 0 0
0 0 0 0 0 0 0 0 0 0 0 0 0 0 0 0 0 0 0 0 0 0 0 0 0 0 0 0 0 0 0 0 0 0 0 0 -0 -0 -0 -0 -0 -0 -0 -0 -0 0 0 0 0 0 0 0 0 0
0 0 0 0 0 0 0 0 0 0 0 0 0 0 0 0 0 0 0 0 0 0 0 0 0 0 0 0 0 0 0 0 0 0 0 -0 -0 -0 -0 -0 -0 -0 -0 -0 0 0 0 0 0 0 0 0 0 0
0 0 0 0 0 0 0 0 0 0 0 0 0 0 0 0 0 0 0 0 0 0 0 0 0 0 0 0 0 0 0 0 0 -0 -0 -0 -0 -0 -0 -0 -0 -0 -0 0 0 0 0 0 0 0 0 0 0 0
0 0 0 0 0 0 0 0 0 0 0 0 0 0 0 0 0 0 0 0 0 0 0 0 0 0 0 0 0 0 0 0 -0 -0 -0 -0 -0 -0 -0 -0 -0 -0 -0 -0 -0 -0 -0 0 -0 0 -0 -0 -0 -0
0 0 0 0 0 0 0 0 0 0 0 0 0 0 0 0 0 0 0 0 0 0 0 0 0 0 0 0 0 0 -0 -0 -0 -0 -0 -0 -0 -0 -0 -0 -0 -0 -0 -0 -0 -0 -0 -0 -0 0 0 0 0 0
0 0 0 0 0 0 0 0 0 0 0 0 0 0 0 0 0 0 0 0 0 0 0 0 0 0 0 0 -0 -0 -0 -0 -0 -0 -0 -0 -0 0 -0 -0 -0 -0 -0 -0 -0 -0 0 0 0 0 0 0 0 0
0 0 0 0 0 0 0 0 0 0 0 0 0 0 0 0 0 0 0 0 0 0 0 0 -0 -0 -0 -0 -0 -0 -0 -0 -0 -0 0 0 0 -0 -0 -0 -0 0 0 0 -0 -0 -0 0 0 0 0 0 0 -0
0 0 0 0 0 0 0 0 0 0 0 0 0 0 0 0 0 0 0 0 0 0 -0 -0 -0 -0 -0 -0 -0 0 0 -0 0 0 0 0 0 0 0 0 0 0 0 -0 -0 -0 -0 -0 -0 -0 -0 -0 -0 -0
0 0 0 0 0 0 0 0 0 0 0 0 0 0 0 0 0 0 0 -0 -0 -0 -0 -0 -0 -0 0 0 0 0 -0 0 0 0 0 0 0 0 0 0 0 0 0 0 0 0 0 -0 -0 -0 -0 -0 -0 -0
-0 0 0 0 0 0 0 0 0 0 0 0 0 0 0 0 -0 0 0 -0 -0 -0 -0 -0 0 0 0 0 -0 -0 -0 0 0 0 0 0 0 0 0 0 0 0 0 0 0 0 0 0 -0 -0 -0 -0 -0 -0
-0 -0 0 0 0 0 -0 0 0 0 0 0 0 0 0 -0 -0 -0 -0 -0 -0 0 -0 -0 -0 -0 -0 0 0 0 0 0 0 0 0 0 0 0 0 0 0 0 0 0 0 0 0 0 0 0 0 0 0 0
-0 0 0 0 0 0 0 0 0 0 0 0 0 0 -0 -0 -0 -0 -0 -0 0 0 0 -0 -0 0 0 0 0 0 0 0 0 0 0 0 0 0 0 0 0 0 0 0 0 0 0 0 0 0 0 0 0 0
-0 0 0 0 0 0 0 0 0 0 0 0 0 -0 -0 -0 -0 -0 0 0 0 0 0 0 0 0 0 0 0 0 0 0 0 0 0 0 0 0 0 0 0 0 0 0 0 0 0 0 0 0 0 0 0 0
0 0 0 0 0 0 0 0 0 0 0 -0 -0 0 -0 -0 0 0 0 0 0 0 0 0 0 0 0 0 0 0 0 0 0 0 0 0 0 -0 0 0 0 0 0 0 0 0 0 0 0 0 0 0 0 0
0 0 0 -0 0 -0 0 0 -0 0 0 0 -0 -0 0 0 0 0 -0 -0 0 -0 -0 -0 -0 0 0 0 0 0 0 0 0 0 0 0 0 0 0 0 0 0 0 0 0 0 0 0 0 0 0 0 0 0
0 0 -0 0 -0 0 -0 -0 0 0 0 0 0 0 0 0 -0 0 0 -0 -0 0 -0 -0 -0 0 0 0 0 0 0 -0 -0 -0 0 0 0 0 0 0 0 0 0 0 0 0 0 0 0 0 0 0 0 0
0 -0 -0 0 0 -0 -0 -0 -0 0 0 0 0 0 0 0 -0 -0 -0 -0 -0 -0 -0 -0 -0 0 0 0 0 0 0 0 0 0 0 0 0 0 0 0 0 0 0 0 -0 -0 -0 0 0 0 0 0 0 0
0 0 0 -0 -0 -0 -0 -0 -0 -0 -0 -0 -0 -0 -0 -0 -0 -0 0 0 0 0 -0 0 0 0 0 0 0 0 0 0 0 0 0 0 0 0 0 0 0 0 0 0 0 0 0 0 0 0 0 0 0 0
0 0 0 0 0 0 0 -0 0 0 0 0 -0 -0 -0 -0 -0 -0 0 0 0 0 0 0 0 0 0 0 0 0 0 0 0 0 0 0 -0 0 0 0 0 0 0 0 0 0 0 0 0 0 0 0 0 0
Wind_Speed_500mb
48 53 55 56 57 57 55 57 59 57 58 59 57 53 52 47 48 43 51 41 47 37 58 40 42 33 34 17 7 16 21 4 7 19 19 26 21 27 29 51 56 46 23 22 26 36 49 33 52 47 56 75 69 67
52 53 56 58 58 60 59 57 58 59 61 60 59 57 56 53 50 46 58 52 44 48 39 48 57 54 51 55 39 12 13 18 11 8 7 9 9 9 27 25 38 41 51 49 37 27 21 39 56 96 106 78 73 62
59 57 56 60 60 59 57 62 62 59 61 61 60 57 55 58 53 49 52 60 57 53 49 52 47 37 34 57 63 33 45 30 26 21 8 8 8 12 11 14 15 15 30 22 41 47 33 27 46 64 74 81 91 91
63 63 59 62 56 55 59 62 65 65 62 61 61 59 56 54 56 53 54 58 55 15 7 19 32 44 35 30 28 34 58 58 44 39 11 9 14 8 20 16 18 22 18 16 29 45 49 56 51 53 55 70 72 85
63 62 63 64 55 57 58 62 66 64 67 61 59 61 60 56 55 52 57 61 58 39 7 14 26 58 67 69 66 43 51 57 39 19 15 24 20 23 25 33 37 44 41 31 37 41 33 39 50 69 81 90 91 80
59 59 63 56 55 56 59 62 64 65 64 65 58 58 58 55 51 48 38 55 60 65 17 7 17 32 21 37 53 56 50 46 17 11 9 14 32 23 19 27 34 58 67 64 48 88 96 94 91 96 91 91 88 81
62 61 58 53 55 57 59 63 62 65 60 59 54 53 53 50 46 49 16 7 3 25 17 5 5 24 50 48 38 35 27 30 23 21 15 30 34 49 32 38 51 79 88 97 100 99 97 104 88 93 98 107 113 119
53 51 52 53 54 55 58 60 61 57 51 50 47 46 46 47 45 51 61 60 48 32 21 7 5 7 16 14 12 30 28 29 18 27 43 29 43 20 21 37 66 88 88 82 68 60 58 71 76 81 88 95 102 109
53 50 46 46 51 52 55 51 49 47 45 40 38 32 34 30 27 45 45 40 43 35 5 5 5 11 11 15 13 14 15 13 20 11 17 18 13 13 32 27 37 36 31 48 62 72 72 50 61 78 72 78 80 83
52 49 47 48 52 45 44 44 41 40 35 30 26 17 11 18 30 19 13 15 17 18 19 8 12 10 14 8 3 1 3 6 5 10 10 9 16 53 28 29 32 42 45 49 55 52 68 83 75 81 84 90 94 96
45 44 45 48 47 41 37 35 29 29 26 26 17 15 16 15 21 14 11 10 5 3 11 16 32 14 17 7 7 13 5 5 7 8 5 7 13 6 31 42 43 44 44 49 52 66 66 72 86 82 97 103 101 100
40 46 43 39 33 28 29 22 23 25 19 14 11 13 16 14 11 8 6 2 6 11 7 7 9 22 12 14 5 8 8 4 13 1 6 21 24 19 43 57 57 59 60 66 59 76 86 80 73 82 94 106 107 96
38 41 33 29 24 21 16 15 9 15 20 25 18 16 14 9 10 11 12 5 5 7 9 6 6 12 9 13 6 5 9 11 3 5 16 15 21 45 55 63 71 65 73 77 78 76 82 92 81 73 95 95 84 82
31 27 27 27 20 14 18 19 20 19 15 4 2 4 7 5 7 9 11 6 5 4 1 3 4 8 11 7 7 7 10 1 8 16 42 5 42 58 62 67 68 76 75 80 87 84 81 83 83 76 69 55 50 46
27 25 16 17 11 13 8 8 6 5 12 10 9 9 10 5 2 4 8 13 2 3 2 2 8 4 5 6 8 1 6 11 11 18 4 29 63 66 73 73 72 78 79 82 84 81 86 77 69 58 43 28 11 9
25 15 10 15 15 18 14 14 9 7 6 7 9 3 2 2 3 4 5 6 5 5 4 6 4 4 11 7 7 15 8 15 8 8 39 60 60 65 71 73 75 74 78 82 78 77 73 63 52 39 27 16 10 9
25 18 24 25 16 12 14 10 7 10 10 7 6 6 8 15 7 5 4 5 12 7 4 2 8 11 6 8 8 8 4 7 22 44 49 56 70 80 80 76 75 76 76 73 70 62 55 38 28 17 18 22 24 30
24 20 16 15 12 9 13 16 8 9 7 6 3 5 12 13 10 10 8 11 7 5 4 1 7 4 6 7 5 2 13 35 40 45 57 61 73 74 67 72 71 69 65 57 51 41 34 27 22 23 22 28 37 42
17 10 6 9 18 13 9 14 10 5 7 12 20 18 19 20 27 17 12 14 14 9 4 6 7 3 5 4 8 32 38 38 54 61 64 65 58 60 64 55 52 53 45 39 38 33 28 26 24 22 27 37 52 53
7 11 12 13 17 14 7 4 1 8 5 8 14 13 13 12 11 25 27 17 13 9 11 7 2 3 13 35 41 47 49 49 49 57 60 58 58 55 45 40 40 38 33 29 27 25 25 29 31 32 32 42 48 50
13 13 6 16 16 6 8 7 9 9 15 14 18 7 11 12 11 13 14 17 15 8 3 5 21 36 38 41 38 40 44 43 43 43 53 57 54 45 39 33 30 36 37 38 40 40 40 39 36 37 41 47 48 47
12 17 18 14 8 8 11 12 8 7 9 18 10 9 8 4 5 8 7 17 7 3 11 27 35 37 36 34 32 29 30 29 25 24 21 26 38 44 42 41 39 42 43 40 40 41 43 43 44 47 50 51 50 52
18 15 9 9 8 11 6 9 8 12 5 5 6 5 5 4 4 5 5 6 4 15 23 25 26 18 17 20 22 21 16 14 16 20 19 21 29 40 43 44 45 46 47 45 44 45 46 45 48 52 53 54 54 55
14 12 16 13 21 5 7 13 11 9 9 6 5 5 4 3 3 5 4 1 12 22 25 26 28 25 22 26 32 32 28 28 28 28 27 31 41 46 53 57 53 50 49 45 48 49 50 51 49 49 49 50 50 51
10 21 15 13 19 10 11 9 10 7 7 7 4 4 4 7 3 4 2 3 15 24 26 23 23 26 29 31 32 33 34 42 46 49 47 47 47 50 57 62 63 63 57 56 57 52 51 48 48 48 47 46 45 45
16 16 10 3 9 8 4 6 7 6 5 4 5 6 6 3 4 3 2 3 7 16 23 26 25 23 25 23 27 33 35 37 41 49 49 49 50 53 56 60 63 63 58 55 51 49 48 46 44 42 44 43 39 35
11 8 12 14 4 7 9 9 8 6 6 6 5 6 2 4 3 4 6 3 6 9 15 18 21 24 27 28 23 20 17 22 29 33 37 40 43 46 47 49 49 48 44 45 45 45 44 42 40 38 36 34 32 30
9 14 7 14 11 10 8 5 5 1 3 5 4 2 0 6 5 8 8 8 8 7 9 10 13 18 22 25 26 24 21 19 19 13 17 23 27 30 30 30 29 28 28 29 30 30 30 30 30 29 27 26 24 21
10 14 4 9 7 8 4 5 5 2 4 3 3 2 4 5 6 10 14 14 11 6 3 5 9 14 17 19 21 22 24 23 22 21 23 26 26 27 27 26 25 24 23 23 23 23 22 19 18 17 16 15 14 13
11 16 5 3 6 2 2 4 3 5 2 3 5 4 4 5 8 15 18 17 13 8 4 3 8 16 21 24 23 23 21 24 26 26 27 29 31 30 30 28 26 24 24 23 22 21 21 21 21 20 20 20 20 20
15 7 4 5 3 3 7 11 6 5 5 4 3 5 5 6 10 20 23 22 20 17 14 11 11 18 20 18 20 21 17 20 22 23 23 25 27 29 30 29 28 27 26 25 25 24 23 23 23 23 22 22 22 22
13 11 4 4 3 4 5 8 3 3 3 4 4 4 5 6 7 7 12 28 30 27 20 17 14 12 13 18 20 23 23 23 22 24 26 29 31 32 34 33 34 32 31 30 30 30 29 28 27 27 27 26 26 26
4 6 7 5 7 6 12 17 12 8 2 3 3 3 4 5 9 5 7 10 17 19 20 20 20 20 20 23 26 27 28 25 24 26 30 33 37 39 40 39 38 38 38 37 36 36 36 36 35 34 34 34 33 33
Wind_Direction_500mb
286 287 288 287 282 281 282 284 283 280 281 283 275 268 271 272 273 262 263 263 258 272 273 266 265 276 295 292 281 356 347 304 213 224 230 230 240 231 232 232 227 223 206 213 232 243 249 218 227 221 236 242 243 257
287 286 287 289 286 280 277 281 282 280 275 276 276 269 265 268 268 267 264 259 255 250 264 269 272 273 273 269 271 255 298 322 295 305 354 320 305 222 201 229 218 231 226 237 221 234 240 213 222 229 240 251 253 255
282 284 288 287 286 285 279 275 274 278 276 269 270 270 267 264 265 263 271 273 243 242 251 264 268 291 277 261 257 245 260 257 261 301 323 313 311 327 302 311 319 289 281 279 270 259 282 278 248 247 248 246 251 257
281 281 285 281 283 286 282 278 275 271 274 273 266 267 265 267 261 260 258 272 278 227 228 271 275 272 274 276 253 252 257 269 281 293 282 269 277 266 283 283 259 275 292 280 284 287 280 284 283 293 304 306 289 278
276 280 282 279 281 283 284 282 277 273 267 269 269 263 262 262 262 264 262 262 268 231 219 249 274 269 274 273 273 266 259 268 257 269 261 267 275 279 265 267 261 269 278 281 280 300 294 289 300 301 299 295 295 292
281 281 279 276 281 283 284 283 281 272 268 263 266 263 261 258 258 264 266 266 265 252 253 235 252 259 239 261 271 271 270 271 240 240 262 257 271 275 263 263 271 275 279 287 290 287 288 294 297 292 286 287 288 288
280 278 276 275 279 282 284 284 279 273 266 264 260 262 258 257 253 241 252 214 345 226 245 262 240 243 248 257 254 247 237 249 250 265 251 269 270 268 266 268 280 276 276 272 270 273 279 281 283 284 281 281 283 282
282 279 275 275 281 282 284 283 277 270 267 260 259 256 259 257 257 249 247 249 251 239 218 229 219 299 228 220 247 261 254 253 227 257 270 264 271 261 262 260 257 264 271 276 287 291 293 292 292 290 288 286 283 281
281 279 279 280 281 281 286 286 278 270 260 250 251 254 257 245 244 251 259 257 242 234 259 185 229 266 162 218 245 271 266 271 265 247 249 248 243 236 253 323 350 351 338 316 311 306 310 307 300 294 298 293 286 287
277 277 279 282 283 279 285 287 284 259 238 236 238 235 228 217 233 233 196 209 207 212 222 206 212 240 246 264 251 252 206 237 242 238 262 220 243 249 25 12 346 336 333 329 330 320 325 313 304 299 298 292 285 281
272 272 275 273 276 274 281 283 285 248 215 215 196 218 222 189 178 187 205 194 164 234 222 231 206 232 245 197 215 204 244 249 252 248 258 263 275 52 356 345 337 329 323 318 305 297 297 289 290 293 292 290 286 284
264 273 278 274 271 272 264 290 262 241 239 226 200 190 184 194 192 188 171 122 207 219 218 200 206 201 193 179 173 212 220 258 248 169 224 270 273 14 344 336 329 327 323 318 315 305 306 300 296 291 287 292 292 295
261 272 270 259 255 251 259 266 290 247 233 230 194 191 183 174 186 194 180 233 255 207 218 217 218 177 162 192 214 214 206 234 350 235 258 281 13 350 339 331 324 324 323 319 314 312 312 310 314 305 302 301 298 296
262 266 264 249 239 239 261 266 257 240 224 228 10 204 204 179 226 187 194 191 172 165 171 249 234 207 205 177 216 200 235 308 246 254 269 9 335 328 328 324 320 320 320 319 319 319 314 318 322 320 313 310 300 284
253 254 269 241 205 230 207 239 235 216 196 197 171 219 206 218 191 121 148 155 159 207 330 235 255 237 215 228 214 131 280 236 228 266 314 330 324 324 321 321 320 320 321 320 320 318 323 325 323 321 325 324 304 237
224 223 200 202 172 182 194 237 274 213 207 215 224 219 168 114 244 137 85 116 5 321 256 218 237 209 229 214 168 222 213 238 301 343 314 315 316 316 314 317 318 319 319 319 322 323 327 329 326 324 334 355 45 97
205 203 221 226 239 239 248 243 192 203 203 193 213 81 90 67 87 93 56 14 348 328 209 215 220 219 315 235 244 20 277 323 313 309 308 311 311 314 317 318 319 322 322 327 326 332 333 335 339 340 31 63 92 110
193 207 221 237 238 186 175 181 203 218 194 74 170 51 75 67 79 56 26 10 20 15 349 358 335 252 254 246 249 9 309 306 302 302 307 309 316 318 316 316 323 327 327 330 334 338 354 10 33 52 73 96 108 108
194 199 188 174 172 161 173 186 211 170 85 99 102 90 90 84 59 53 60 74 72 66 64 37 56 353 312 304 306 311 310 309 310 311 308 315 316 315 319 326 331 333 338 343 347 354 8 25 40 60 84 102 103 108
252 229 219 210 193 171 192 147 82 92 92 106 102 89 83 82 85 52 54 60 66 46 42 44 93 260 280 294 297 295 296 301 305 308 310 319 324 325 336 342 347 351 3 11 20 33 46 60 69 78 88 95 102 104
229 240 205 162 157 144 99 61 66 74 114 91 120 76 91 74 50 37 36 30 60 46 355 280 307 308 308 308 312 310 300 305 302 299 299 309 336 343 357 8 20 26 29 34 43 48 57 61 71 85 93 95 101 105
169 148 145 143 103 88 85 51 79 70 85 124 96 85 80 66 44 35 53 50 61 12 319 310 313 321 324 329 326 320 316 315 317 315 330 348 351 2 20 27 39 39 39 45 52 57 64 72 82 86 89 92 96 100
126 133 88 62 92 56 18 41 68 24 88 81 84 74 58 65 77 70 76 73 38 346 342 344 342 340 334 350 5 6 357 359 6 17 24 32 30 30 42 45 49 53 53 55 63 68 72 78 82 86 89 93 95 96
97 61 36 42 32 48 16 30 34 37 48 43 63 79 47 49 84 66 84 34 349 4 15 19 24 39 49 47 36 36 45 56 55 56 59 61 61 57 54 54 56 58 62 63 66 68 70 72 76 79 83 86 89 91
91 14 24 8 22 36 36 22 3 29 57 26 68 78 27 353 82 69 98 327 1 16 21 34 41 42 41 50 52 52 59 64 62 61 60 66 72 74 69 64 59 58 60 63 63 65 68 72 75 77 78 80 84 87
68 11 45 346 2 65 6 61 36 17 356 63 42 329 335 72 73 162 200 318 16 24 29 34 35 43 43 38 40 47 52 60 65 62 56 55 57 58 57 56 57 55 55 56 58 60 64 66 68 72 78 79 78 83
59 343 32 32 37 87 63 53 54 63 52 32 354 336 328 94 198 222 177 95 99 68 58 51 47 48 45 44 44 40 37 41 49 54 53 47 44 46 47 48 49 48 46 51 52 52 53 56 58 60 63 69 73 76
75 36 69 347 46 43 117 70 64 62 257 300 287 306 266 186 199 178 177 160 137 111 82 56 42 39 37 34 32 30 30 25 26 32 34 38 39 38 38 38 37 34 30 31 35 38 40 40 42 44 45 47 51 54
46 360 10 21 33 49 70 134 199 202 307 223 160 277 268 263 225 178 170 167 163 152 103 38 27 18 11 2 360 3 9 12 16 19 23 20 17 16 14 12 8 5 3 2 359 359 1 0 0 360 0 359 358 359
6 4 72 72 80 38 45 42 352 324 317 246 249 271 281 271 216 189 185 188 195 200 212 302 340 347 348 350 353 355 356 4 10 12 11 8 5 1 358 355 352 348 344 341 339 335 331 330 328 326 325 320 315 310
346 343 71 67 138 97 336 320 277 261 252 249 267 265 281 289 247 225 218 216 222 229 244 267 303 332 340 346 350 352 355 355 357 357 355 352 349 347 346 344 341 336 333 331 330 329 329 327 323 319 313 309 306 305
4 36 89 57 297 331 345 354 289 248 246 235 240 268 281 279 267 242 242 229 235 240 246 260 281 305 320 337 341 343 336 337 336 336 339 342 344 342 338 334 328 326 322 321 319 317 315 311 309 307 308 307 306 304
353 11 30 4 6 11 353 348 20 359 238 246 246 281 265 264 248 269 290 259 247 247 250 264 275 279 292 314 326 326 325 323 327 329 329 330 331 332 333 332 328 324 318 312 308 306 305 303 302 301 299 297 295 294
Wind_Speed_850mb
48 53 55 56 57 57 55 57 59 57 58 59 57 53 52 47 48 43 51 41 47 37 58 40 42 33 34 17 7 16 21 4 7 19 19 26 21 27 29 51 56 46 23 22 26 36 49 33 52 47 56 75 69 67
52 53 56 58 58 60 59 57 58 59 61 60 59 57 56 53 50 46 58 52 44 48 39 48 57 54 51 55 39 12 13 18 11 8 7 9 9 9 27 25 38 41 51 49 37 27 21 39 56 96 106 78 73 62
59 57 56 60 60 59 57 62 62 59 61 61 60 57 55 58 53 49 52 60 57 53 49 52 47 37 34 57 63 33 45 30 26 21 8 8 8 12 11 14 15 15 30 22 41 47 33 27 46 64 74 81 91 91
63 63 59 62 56 55 59 62 65 65 62 61 61 59 56 54 56 53 54 58 55 15 7 19 32 44 35 30 28 34 58 58 44 39 11 9 14 8 20 16 18 22 18 16 29 45 49 56 51 53 55 70 72 85
63 62 63 64 55 57 58 62 66 64 67 61 59 61 60 56 55 52 57 61 58 39 7 14 26 58 67 69 66 43 51 57 39 19 15 24 20 23 25 33 37 44 41 31 37 41 33 39 50 69 81 90 91 80
59 59 63 56 55 56 59 62 64 65 64 65 58 58 58 55 51 48 38 55 60 65 17 7 17 32 21 37 53 56 50 46 17 11 9 14 32 23 19 27 34 58 67 64 48 88 96 94 91 96 91 91 88 81
62 61 58 53 55 57 59 63 62 65 60 59 54 53 53 50 46 49 16 7 3 25 17 5 5 24 50 48 38 35 27 30 23 21 15 30 34 49 32 38 51 79 88 97 100 99 97 104 88 93 98 107 113 119
53 51 52 53 54 55 58 60 61 57 51 50 47 46 46 47 45 51 61 60 48 32 21 7 5 7 16 14 12 30 28 29 18 27 43 29 43 20 21 37 66 88 88 82 68 60 58 71 76 81 88 95 102 109
53 50 46 46 51 52 55 51 49 47 45 40 38 32 34 30 27 45 45 40 43 35 5 5 5 11 11 15 13 14 15 13 20 11 17 18 13 13 32 27 37 36 31 48 62 72 72 50 61 78 72 78 80 83
52 49 47 48 52 45 44 44 41 40 35 30 26 17 11 18 30 19 13 15 17 18 19 8 12 10 14 8 3 1 3 6 5 10 10 9 16 53 28 29 32 42 45 49 55 52 68 83 75 81 84 90 94 96
45 44 45 48 47 41 37 35 29 29 26 26 17 15 16 15 21 14 11 10 5 3 11 16 32 14 17 7 7 13 5 5 7 8 5 7 13 6 31 42 43 44 44 49 52 66 66 72 86 82 97 103 101 100
40 46 43 39 33 28 29 22 23 25 19 14 11 13 16 14 11 8 6 2 6 11 7 7 9 22 12 14 5 8 8 4 13 1 6 21 24 19 43 57 57 59 60 66 59 76 86 80 73 82 94 106 107 96
38 41 33 29 24 21 16 15 9 15 20 25 18 16 14 9 10 11 12 5 5 7 9 6 6 12 9 13 6 5 9 11 3 5 16 15 21 45 55 63 71 65 73 77 78 76 82 92 81 73 95 95 84 82
31 27 27 27 20 14 18 19 20 19 15 4 2 4 7 5 7 9 11 6 5 4 1 3 4 8 11 7 7 7 10 1 8 16 42 5 42 58 62 67 68 76 75 80 87 84 81 83 83 76 69 55 50 46
27 25 16 17 11 13 8 8 6 5 12 10 9 9 10 5 2 4 8 13 2 3 2 2 8 4 5 6 8 1 6 11 11 18 4 29 63 66 73 73 72 78 79 82 84 81 86 77 69 58 43 28 11 9
25 15 10 15 15 18 14 14 9 7 6 7 9 3 2 2 3 4 5 6 5 5 4 6 4 4 11 7 7 15 8 15 8 8 39 60 60 65 71 73 75 74 78 82 78 77 73 63 52 39 27 16 10 9
25 18 24 25 16 12 14 10 7 10 10 7 6 6 8 15 7 5 4 5 12 7 4 2 8 11 6 8 8 8 4 7 22 44 49 56 70 80 80 76 75 76 76 73 70 62 55 38 28 17 18 22 24 30
24 20 16 15 12 9 13 16 8 9 7 6 3 5 12 13 10 10 8 11 7 5 4 1 7 4 6 7 5 2 13 35 40 45 57 61 73 74 67 72 71 69 65 57 51 41 34 27 22 23 22 28 37 42
17 10 6 9 18 13 9 14 10 5 7 12 20 18 19 20 27 17 12 14 14 9 4 6 7 3 5 4 8 32 38 38 54 61 64 65 58 60 64 55 52 53 45 39 38 33 28 26 24 22 27 37 52 53
7 11 12 13 17 14 7 4 1 8 5 8 14 13 13 12 11 25 27 17 13 9 11 7 2 3 13 35 41 47 49 49 49 57 60 58 58 55 45 40 40 38 33 29 27 25 25 29 31 32 32 42 48 50
13 13 6 16 16 6 8 7 9 9 15 14 18 7 11 12 11 13 14 17 15 8 3 5 21 36 38 41 38 40 44 43 43 43 53 57 54 45 39 33 30 36 37 38 40 40 40 39 36 37 41 47 48 47
12 17 18 14 8 8 11 12 8 7 9 18 10 9 8 4 5 8 7 17 7 3 11 27 35 37 36 34 32 29 30 29 25 24 21 26 38 44 42 41 39 42 43 40 40 41 43 43 44 47 50 51 50 52
18 15 9 9 8 11 6 9 8 12 5 5 6 5 5 4 4 5 5 6 4 15 23 25 26 18 17 20 22 21 16 14 16 20 19 21 29 40 43 44 45 46 47 45 44 45 46 45 48 52 53 54 54 55
14 12 16 13 21 5 7 13 11 9 9 6 5 5 4 3 3 5 4 1 12 22 25 26 28 25 22 26 32 32 28 28 28 28 27 31 41 46 53 57 53 50 49 45 48 49 50 51 49 49 49 50 50 51
10 21 15 13 19 10 11 9 10 7 7 7 4 4 4 7 3 4 2 3 15 24 26 23 23 26 29 31 32 33 34 42 46 49 47 47 47 50 57 62 63 63 57 56 57 52 51 48 48 48 47 46 45 45
16 16 10 3 9 8 4 6 7 6 5 4 5 6 6 3 4 3 2 3 7 16 23 26 25 23 25 23 27 33 35 37 41 49 49 49 50 53 56 60 63 63 58 55 51 49 48 46 44 42 44 43 39 35
11 8 12 14 4 7 9 9 8 6 6 6 5 6 2 4 3 4 6 3 6 9 15 18 21 24 27 28 23 20 17 22 29 33 37 40 43 46 47 49 49 48 44 45 45 45 44 42 40 38 36 34 32 30
9 14 7 14 11 10 8 5 5 1 3 5 4 2 0 6 5 8 8 8 8 7 9 10 13 18 22 25 26 24 21 19 19 13 17 23 27 30 30 30 29 28 28 29 30 30 30 30 30 29 27 26 24 21
10 14 4 9 7 8 4 5 5 2 4 3 3 2 4 5 6 10 14 14 11 6 3 5 9 14 17 19 21 22 24 23 22 21 23 26 26 27 27 26 25 24 23 23 23 23 22 19 18 17 16 15 14 13
11 16 5 3 6 2 2 4 3 5 2 3 5 4 4 5 8 15 18 17 13 8 4 3 8 16 21 24 23 23 21 24 26 26 27 29 31 30 30 28 26 24 24 23 22 21 21 21 21 20 20 20 20 20
15 7 4 5 3 3 7 11 6 5 5 4 3 5 5 6 10 20 23 22 20 17 14 11 11 18 20 18 20 21 17 20 22 23 23 25 27 29 30 29 28 27 26 25 25 24 23 23 23 23 22 22 22 22
13 11 4 4 3 4 5 8 3 3 3 4 4 4 5 6 7 7 12 28 30 27 20 17 14 12 13 18 20 23 23 23 22 24 26 29 31 32 34 33 34 32 31 30 30 30 29 28 27 27 27 26 26 26
4 6 7 5 7 6 12 17 12 8 2 3 3 3 4 5 9 5 7 10 17 19 20 20 20 20 20 23 26 27 28 25 24 26 30 33 37 39 40 39 38 38 38 37 36 36 36 36 35 34 34 34 33 33
Wind_Direction_850mb
286 287 288 287 282 281 282 284 283 280 281 283 275 268 271 272 273 262 263 263 258 272 273 266 265 276 295 292 281 356 347 304 213 224 230 230 240 231 232 232 227 223 206 213 232 243 249 218 227 221 236 242 243 257
287 286 287 289 286 280 277 281 282 280 275 276 276 269 265 268 268 267 264 259 255 250 264 269 272 273 273 269 271 255 298 322 295 305 354 320 305 222 201 229 218 231 226 237 221 234 240 213 222 229 240 251 253 255
282 284 288 287 286 285 279 275 274 278 276 269 270 270 267 264 265 263 271 273 243 242 251 264 268 291 277 261 257 245 260 257 261 301 323 313 311 327 302 311 319 289 281 279 270 259 282 278 248 247 248 246 251 257
281 281 285 281 283 286 282 278 275 271 274 273 266 267 265 267 261 260 258 272 278 227 228 271 275 272 274 276 253 252 257 269 281 293 282 269 277 266 283 283 259 275 292 280 284 287 280 284 283 293 304 306 289 278
276 280 282 279 281 283 284 282 277 273 267 269 269 263 262 262 262 264 262 262 268 231 219 249 274 269 274 273 273 266 259 268 257 269 261 267 275 279 265 267 261 269 278 281 280 300 294 289 300 301 299 295 295 292
281 281 279 276 281 283 284 283 281 272 268 263 266 263 261 258 258 264 266 266 265 252 253 235 252 259 239 261 271 271 270 271 240 240 262 257 271 275 263 263 271 275 279 287 290 287 288 294 297 292 286 287 288 288
280 278 276 275 279 282 284 284 279 273 266 264 260 262 258 257 253 241 252 214 345 226 245 262 240 243 248 257 254 247 237 249 250 265 251 269 270 268 266 268 280 276 276 272 270 273 279 281 283 284 281 281 283 282
282 279 275 275 281 282 284 283 277 270 267 260 259 256 259 257 257 249 247 249 251 239 218 229 219 299 228 220 247 261 254 253 227 257 270 264 271 261 262 260 257 264 271 276 287 291 293 292 292 290 288 286 283 281
281 279 279 280 281 281 286 286 278 270 260 250 251 254 257 245 244 251 259 257 242 234 259 185 229 266 162 218 245 271 266 271 265 247 249 248 243 236 253 323 350 351 338 316 311 306 310 307 300 294 298 293 286 287
277 277 279 282 283 279 285 287 284 259 238 236 238 235 228 217 233 233 196 209 207 212 222 206 212 240 246 264 251 252 206 237 242 238 262 220 243 249 25 12 346 336 333 329 330 320 325 313 304 299 298 292 285 281
272 272 275 273 276 274 281 283 285 248 215 215 196 218 222 189 178 187 205 194 164 234 222 231 206 232 245 197 215 204 244 249 252 248 258 263 275 52 356 345 337 329 323 318 305 297 297 289 290 293 292 290 286 284
264 273 278 274 271 272 264 290 262 241 239 226 200 190 184 194 192 188 171 122 207 219 218 200 206 201 193 179 173 212 220 258 248 169 224 270 273 14 344 336 329 327 323 318 315 305 306 300 296 291 287 292 292 295
261 272 270 259 255 251 259 266 290 247 233 230 194 191 183 174 186 194 180 233 255 207 218 217 218 177 162 192 214 214 206 234 350 235 258 281 13 350 339 331 324 324 323 319 314 312 312 310 314 305 302 301 298 296
262 266 264 249 239 239 261 266 257 240 224 228 10 204 204 179 226 187 194 191 172 165 171 249 234 207 205 177 216 200 235 308 246 254 269 9 335 328 328 324 320 320 320 319 319 319 314 318 322 320 313 310 300 284
253 254 269 241 205 230 207 239 235 216 196 197 171 219 206 218 191 121 148 155 159 207 330 235 255 237 215 228 214 131 280 236 228 266 314 330 324 324 321 321 320 320 321 320 320 318 323 325 323 321 325 324 304 237
224 223 200 202 172 182 194 237 274 213 207 215 224 219 168 114 244 137 85 116 5 321 256 218 237 209 229 214 168 222 213 238 301 343 314 315 316 316 314 317 318 319 319 319 322 323 327 329 326 324 334 355 45 97
205 203 221 226 239 239 248 243 192 203 203 193 213 81 90 67 87 93 56 14 348 328 209 215 220 219 315 235 244 20 277 323 313 309 308 311 311 314 317 318 319 322 322 327 326 332 333 335 339 340 31 63 92 110
193 207 221 237 238 186 175 181 203 218 194 74 170 51 75 67 79 56 26 10 20 15 349 358 335 252 254 246 249 9 309 306 302 302 307 309 316 318 316 316 323 327 327 330 334 338 354 10 33 52 73 96 108 108
194 199 188 174 172 161 173 186 211 170 85 99 102 90 90 84 59 53 60 74 72 66 64 37 56 353 312 304 306 311 310 309 310 311 308 315 316 315 319 326 331 333 338 343 347 354 8 25 40 60 84 102 103 108
252 229 219 210 193 171 192 147 82 92 92 106 102 89 83 82 85 52 54 60 66 46 42 44 93 260 280 294 297 295 296 301 305 308 310 319 324 325 336 342 347 351 3 11 20 33 46 60 69 78 88 95 102 104
229 240 205 162 157 144 99 61 66 74 114 91 120 76 91 74 50 37 36 30 60 46 355 280 307 308 308 308 312 310 300 305 302 299 299 309 336 343 357 8 20 26 29 34 43 48 57 61 71 85 93 95 101 105
169 148 145 143 103 88 85 51 79 70 85 124 96 85 80 66 44 35 53 50 61 12 319 310 313 321 324 329 326 320 316 315 317 315 330 348 351 2 20 27 39 39 39 45 52 57 64 72 82 86 89 92 96 100
126 133 88 62 92 56 18 41 68 24 88 81 84 74 58 65 77 70 76 73 38 346 342 344 342 340 334 350 5 6 357 359 6 17 24 32 30 30 42 45 49 53 53 55 63 68 72 78 82 86 89 93 95 96
97 61 36 42 32 48 16 30 34 37 48 43 63 79 47 49 84 66 84 34 349 4 15 19 24 39 49 47 36 36 45 56 55 56 59 61 61 57 54 54 56 58 62 63 66 68 70 72 76 79 83 86 89 91
91 14 24 8 22 36 36 22 3 29 57 26 68 78 27 353 82 69 98 327 1 16 21 34 41 42 41 50 52 52 59 64 62 61 60 66 72 74 69 64 59 58 60 63 63 65 68 72 75 77 78 80 84 87
68 11 45 346 2 65 6 61 36 17 356 63 42 329 335 72 73 162 200 318 16 24 29 34 35 43 43 38 40 47 52 60 65 62 56 55 57 58 57 56 57 55 55 56 58 60 64 66 68 72 78 79 78 83
59 343 32 32 37 87 63 53 54 63 52 32 354 336 328 94 198 222 177 95 99 68 58 51 47 48 45 44 44 40 37 41 49 54 53 47 44 46 47 48 49 48 46 51 52 52 53 56 58 60 63 69 73 76
75 36 69 347 46 43 117 70 64 62 257 300 287 306 266 186 199 178 177 160 137 111 82 56 42 39 37 34 32 30 30 25 26 32 34 38 39 38 38 38 37 34 30 31 35 38 40 40 42 44 45 47 51 54
46 360 10 21 33 49 70 134 199 202 307 223 160 277 268 263 225 178 170 167 163 152 103 38 27 18 11 2 360 3 9 12 16 19 23 20 17 16 14 12 8 5 3 2 359 359 1 0 0 360 0 359 358 359
6 4 72 72 80 38 45 42 352 324 317 246 249 271 281 271 216 189 185 188 195 200 212 302 340 347 348 350 353 355 356 4 10 12 11 8 5 1 358 355 352 348 344 341 339 335 331 330 328 326 325 320 315 310
346 343 71 67 138 97 336 320 277 261 252 249 267 265 281 289 247 225 218 216 222 229 244 267 303 332 340 346 350 352 355 355 357 357 355 352 349 347 346 344 341 336 333 331 330 329 329 327 323 319 313 309 306 305
4 36 89 57 297 331 345 354 289 248 246 235 240 268 281 279 267 242 242 229 235 240 246 260 281 305 320 337 341 343 336 337 336 336 339 342 344 342 338 334 328 326 322 321 319 317 315 311 309 307 308 307 306 304
353 11 30 4 6 11 353 348 20 359 238 246 246 281 265 264 248 269 290 259 247 247 250 264 275 279 292 314 326 326 325 323 327 329 329 330 331 332 333 332 328 324 318 312 308 306 305 303 302 301 299 297 295 294